RH
99 99 100 99 100 100 99 100 99 99 100 99 97 97 98 96 93 94 87 72 60 50 43 42 43 37 33 32 31 26 24 42 50 41 35 20 12 12 10 8 5 9 16 26 35 36 33 28 27 29 33 33 32 31 32 31 29 40 46 59 76 65 63 70 66 63 66 73 74 73 64 58 64 60 53 49 47 46 46 41 33 30 25 25 30 34 37 40
98 99 100 99 99 100 100 99 100 100 99 97 94 92 93 95 86 79 74 60 48 41 38 42 40 37 33 30 31 27 34 56 48 28 22 16 14 11 7 6 5 10 16 26 34 33 27 22 23 26 31 32 30 31 33 32 31 40 47 60 72 56 52 61 62 64 67 74 79 77 68 61 64 59 52 53 54 51 50 45 35 32 29 29 33 35 39 40
98 100 100 100 99 98 100 100 100 99 100 98 92 83 81 85 79 65 56 45 38 35 35 36 34 35 32 31 32 33 48 56 35 24 26 20 19 16 8 4 4 10 17 27 31 29 24 19 19 24 31 30 28 30 31 33 32 38 45 54 61 53 53 61 62 66 71 76 80 75 66 64 59 51 50 53 55 53 51 46 38 36 35 33 33 36 39 39
96 96 90 94 99 94 94 99 100 100 100 99 92 83 70 65 61 50 41 33 30 31 30 29 30 30 29 29 31 40 55 43 21 27 31 20 18 15 7 3 4 11 21 27 27 27 23 16 17 22 29 29 27 29 31 33 33 38 42 48 58 56 59 64 62 68 71 71 75 67 59 59 51 46 48 49 53 53 48 42 38 37 36 34 34 35 37 37
81 73 63 72 83 79 80 89 96 97 96 96 93 83 62 47 43 39 35 29 26 28 26 25 25 26 28 24 30 49 50 23 14 29 28 16 13 8 5 4 4 15 25 25 24 26 22 15 15 20 27 28 27 31 32 29 31 36 37 47 59 56 66 71 61 66 70 70 71 62 55 53 49 48 45 41 47 49 42 37 36 34 32 33 33 33 34 34
64 55 51 57 62 61 63 73 81 81 77 77 79 68 49 38 35 33 30 26 24 25 22 22 21 24 26 21 36 55 40 12 16 27 21 17 14 4 4 3 4 21 27 20 22 24 21 15 14 21 24 25 29 33 31 27 30 36 38 51 56 52 66 69 57 64 69 73 72 59 51 49 50 52 46 41 43 42 36 32 33 31 30 31 30 31 32 32
53 55 57 56 57 57 55 58 64 63 56 54 56 49 39 34 31 28 24 23 24 23 20 19 21 22 20 28 49 53 28 9 18 29 20 19 17 3 4 4 9 30 29 17 19 21 19 15 15 20 21 25 31 31 30 28 28 35 42 51 55 53 63 60 52 57 63 75 73 55 47 47 52 54 51 51 45 39 35 30 30 30 29 29 28 29 29 31
44 51 53 50 54 58 54 51 53 53 46 41 40 37 33 29 28 26 23 24 24 21 18 17 21 19 20 37 46 34 20 10 19 32 20 16 17 4 5 9 18 34 29 16 16 19 17 15 15 17 20 24 28 30 30 27 27 33 41 50 54 55 60 54 47 52 60 68 64 54 52 50 52 53 55 56 46 38 34 30 30 29 28 28 27 28 28 30
35 39 41 41 46 51 49 47 47 46 42 38 34 31 30 28 29 26 24 25 23 19 16 18 20 17 31 50 37 17 17 16 22 34 29 25 20 9 10 13 17 26 23 15 13 16 15 13 13 14 19 22 26 30 28 27 28 29 35 48 57 56 57 55 52 59 64 65 63 63 62 55 52 53 59 55 43 37 32 29 29 28 29 29 27 27 29 29
33 33 34 35 38 40 42 42 43 42 40 36 31 29 28 28 28 23 23 24 21 18 14 18 18 21 46 53 29 15 18 19 24 32 34 32 23 15 15 12 13 19 18 12 10 12 12 12 11 12 19 22 26 28 26 25 23 26 33 40 48 48 46 52 61 69 72 72 74 75 68 59 54 57 62 54 41 36 33 31 30 29 30 29 28 28 29 29
33 32 32 31 33 34 36 38 39 40 39 35 31 29 28 27 25 21 22 22 21 16 15 17 15 29 51 40 19 15 15 18 25 28 28 25 19 17 16 12 13 16 15 11 10 10 10 10 9 13 19 21 26 27 24 20 18 27 34 37 41 43 44 47 55 66 74 77 76 77 72 63 59 61 61 51 40 37 34 32 30 30 30 29 29 29 29 29
31 30 30 29 30 30 32 34 35 38 38 34 29 27 26 25 23 21 21 22 22 16 16 16 17 39 50 31 16 12 11 17 24 25 23 19 17 16 14 12 12 13 14 12 10 9 10 10 9 14 17 20 26 28 23 17 17 25 34 48 52 49 54 54 53 58 67 72 71 72 72 69 67 63 57 48 41 38 34 32 31 29 30 30 29 30 30 29
30 29 27 27 27 28 30 31 32 34 36 31 27 25 24 24 22 21 22 24 21 17 19 17 27 54 51 24 11 9 12 18 22 21 17 14 13 12 13 13 12 13 14 12 10 10 10 10 11 13 14 19 26 25 20 15 17 21 35 60 64 56 61 61 60 59 61 68 68 67 71 73 73 65 56 47 41 40 35 32 31 28 29 30 29 30 29 29
29 28 26 25 24 26 27 29 30 32 34 30 24 22 22 23 23 23 23 23 22 20 21 19 36 61 47 18 9 11 17 19 20 18 13 12 10 10 13 14 14 15 13 12 11 10 11 11 10 12 12 17 22 20 19 17 17 18 30 50 58 61 65 64 65 65 66 69 66 67 71 72 73 68 57 47 42 39 36 33 31 29 28 29 29 29 29 28
28 26 25 23 22 24 25 27 29 30 33 30 24 22 22 24 24 25 24 24 24 21 28 40 53 57 35 14 10 15 21 20 17 14 13 12 9 9 11 12 14 14 13 12 11 10 11 10 10 11 12 16 20 21 21 18 16 18 29 39 44 54 64 67 66 66 68 69 69 66 67 74 76 68 57 50 45 39 37 34 31 30 28 29 28 27 28 27
28 25 23 22 20 22 23 25 27 30 32 29 25 22 22 27 28 28 25 24 25 28 47 61 53 44 27 13 14 19 21 20 16 13 14 13 10 9 9 10 11 11 12 11 10 11 9 9 9 9 11 17 23 24 21 18 17 19 28 36 40 50 61 63 60 63 67 70 75 69 70 87 85 69 59 54 49 43 40 36 32 32 29 28 28 27 28 28
27 25 22 21 19 20 22 23 26 29 29 27 26 25 28 32 31 31 28 30 38 46 58 53 34 29 22 10 14 19 18 19 18 14 13 13 13 10 7 8 8 9 10 9 10 9 8 8 9 7 10 17 21 23 22 21 21 21 26 31 35 42 49 53 56 58 63 68 72 71 74 85 83 72 63 55 54 50 43 39 34 32 31 28 26 27 28 29
26 25 22 20 19 19 20 22 25 28 29 28 28 31 36 37 38 45 45 46 56 57 52 42 31 27 16 8 14 15 14 19 19 16 15 14 14 11 8 7 6 7 7 8 9 8 8 7 8 9 11 18 21 23 24 20 20 22 26 27 31 47 50 50 55 52 54 61 63 70 76 77 79 75 63 55 56 52 45 42 36 31 32 30 27 27 29 30
25 24 22 20 18 18 18 21 25 27 29 29 33 42 49 49 52 61 59 51 49 41 30 27 25 21 13 10 12 12 14 18 19 18 16 15 14 11 10 8 6 6 6 8 9 8 8 6 8 11 12 19 21 22 21 17 17 18 22 20 26 57 65 49 48 46 45 55 59 66 75 75 78 76 64 58 56 52 48 45 41 34 32 32 29 27 28 31
25 23 22 20 18 18 17 21 24 27 28 32 46 57 50 43 42 43 43 38 28 18 13 13 13 13 12 10 11 13 15 17 18 18 16 15 14 11 10 9 7 5 5 7 8 8 7 7 9 10 10 16 17 18 16 13 15 13 18 20 18 42 59 45 42 44 40 53 63 62 66 72 77 76 66 61 59 55 51 48 46 39 33 34 31 28 29 30
23 22 21 20 18 17 17 20 23 27 26 30 48 50 28 20 23 21 23 22 14 10 10 11 11 12 11 10 11 13 14 15 15 16 16 15 13 10 10 10 8 6 4 5 6 7 7 7 8 7 8 12 15 16 16 14 16 14 15 21 19 26 42 41 40 41 38 59 75 60 57 67 74 79 73 67 66 60 54 49 48 43 36 35 33 30 31 29
23 21 20 19 18 17 17 19 23 25 24 31 44 34 15 15 20 18 20 17 10 10 12 11 11 11 11 11 11 12 14 15 15 15 15 14 11 10 9 10 10 7 4 4 6 8 9 8 7 6 7 12 16 15 15 16 15 15 14 18 20 18 29 42 45 42 39 64 86 61 51 64 68 76 78 74 72 64 58 50 46 45 39 38 36 33 32 32
23 20 19 19 17 17 17 18 23 23 24 33 35 22 15 18 19 19 21 18 12 11 10 10 11 10 11 12 11 13 14 14 15 15 14 14 11 9 9 9 9 7 4 4 7 10 10 8 5 6 7 11 16 15 15 19 15 14 14 13 17 16 22 38 50 55 48 62 83 65 59 76 76 78 80 74 71 67 62 60 59 54 44 38 36 33 33 33
23 20 19 19 17 18 18 18 24 25 26 30 24 17 17 19 19 20 20 17 13 10 9 10 10 10 12 12 10 12 14 12 13 14 13 13 11 10 9 8 8 7 5 4 6 8 8 6 5 5 8 11 15 17 17 20 16 13 13 10 13 16 18 23 34 48 46 44 56 54 65 91 90 85 84 78 77 75 70 73 74 63 51 42 35 33 33 32
25 21 18 18 17 17 19 21 26 25 22 22 19 17 19 18 20 22 22 19 13 10 10 9 10 11 11 12 12 12 12 9 10 12 12 12 11 10 9 8 8 7 7 6 5 6 5 6 7 5 10 15 18 20 19 19 16 12 12 10 10 14 16 21 25 33 40 39 36 37 55 83 86 78 79 83 88 85 75 73 69 60 56 50 38 34 33 32
29 21 17 19 17 17 25 27 22 18 16 16 17 18 17 18 22 23 24 23 14 9 10 9 10 10 10 12 12 11 13 11 9 11 11 11 11 11 11 9 8 8 8 6 5 5 4 8 11 10 15 20 20 20 17 16 16 12 11 9 10 12 14 21 24 26 35 37 33 31 41 67 83 76 70 79 89 87 79 74 66 61 62 56 43 37 34 32
33 24 18 19 16 19 30 28 17 15 15 14 16 17 16 20 25 24 26 25 14 9 9 8 8 8 9 10 8 11 17 15 10 11 10 11 12 10 12 11 9 10 8 6 7 5 5 10 14 14 16 19 19 19 16 14 15 14 10 9 9 11 13 18 20 22 25 25 28 30 32 51 73 73 65 71 83 84 81 80 72 64 63 56 45 39 35 33
35 26 19 19 18 19 23 23 20 16 13 14 16 16 17 24 27 25 28 25 13 8 8 7 7 7 7 8 7 10 15 13 13 14 10 10 12 10 12 10 8 10 9 8 9 5 6 12 14 13 14 15 15 16 15 13 14 13 10 9 9 10 12 13 16 19 18 23 30 28 30 43 57 68 70 69 79 84 80 80 77 66 63 58 49 42 38 35
34 26 21 18 15 14 14 19 25 19 13 16 17 17 20 24 25 24 26 20 10 8 7 7 7 6 6 6 7 9 10 10 13 14 11 11 12 11 12 11 8 10 10 9 9 7 7 10 11 11 12 12 12 12 12 12 14 13 10 11 10 10 11 11 15 18 18 26 32 27 30 43 51 67 81 77 76 78 73 72 72 67 64 62 55 47 40 36
33 26 22 18 19 25 24 23 24 17 15 18 18 19 20 21 24 27 24 16 9 8 7 7 7 6 6 6 8 8 7 9 12 12 13 12 11 11 12 11 9 10 11 10 9 9 9 9 10 10 10 10 10 11 11 11 13 12 12 13 12 12 11 11 13 17 24 31 31 24 25 38 47 57 74 79 69 62 63 67 68 66 65 65 60 52 42 36
30 25 22 18 23 32 29 22 20 17 18 21 20 19 20 22 25 24 19 12 9 9 7 7 7 6 6 6 8 8 6 8 10 12 14 13 11 11 11 12 11 11 13 11 9 10 11 12 12 10 8 8 8 9 9 10 12 12 13 14 14 14 14 16 15 18 31 35 29 23 20 30 43 44 50 57 50 44 52 61 63 62 61 60 60 55 46 38
28 22 18 15 15 18 18 17 19 21 21 23 21 18 22 26 21 15 12 9 10 10 7 7 7 6 6 6 7 8 6 7 8 10 13 14 13 12 11 13 13 13 15 12 9 12 13 12 12 9 9 9 9 10 10 11 13 13 14 15 16 18 18 21 22 23 31 32 27 23 21 27 37 38 39 43 40 37 42 49 52 54 56 54 53 52 53 50
25 19 14 12 11 12 17 19 18 20 22 23 21 18 23 25 17 11 9 9 10 9 6 7 7 6 7 7 7 7 7 8 7 8 10 12 14 13 11 11 12 13 15 12 9 11 13 11 10 10 9 10 11 12 11 12 12 12 14 16 17 20 22 25 25 24 26 26 22 21 24 30 36 40 43 45 41 35 39 47 45 45 50 50 48 51 56 64
21 15 11 10 10 11 16 17 15 20 24 21 19 21 24 21 13 10 9 8 9 7 7 8 7 7 7 8 8 7 8 10 8 7 9 11 14 13 12 11 11 12 13 13 10 9 13 14 11 10 10 10 11 10 9 9 9 9 10 12 14 16 20 23 21 21 22 22 21 23 29 32 36 42 45 48 48 37 40 55 52 42 43 45 49 52 52 62
17 11 12 15 14 13 15 16 17 26 26 18 18 22 21 16 11 10 10 8 8 7 7 7 7 8 8 8 8 7 9 11 9 8 10 13 14 14 13 11 10 11 12 14 13 9 12 13 9 9 9 9 9 8 8 8 8 8 6 9 12 11 13 17 16 15 17 18 18 22 27 30 37 46 48 52 55 39 33 52 58 44 39 45 52 54 50 55
19 16 19 23 20 18 21 21 24 28 24 18 20 19 14 13 11 10 10 9 8 8 8 8 8 9 9 9 10 8 9 11 10 11 12 12 13 12 12 12 10 10 11 14 15 12 12 11 9 9 8 8 9 7 6 8 9 8 6 8 9 8 9 13 15 14 15 19 20 19 22 29 39 47 44 44 47 39 29 37 47 44 41 46 52 53 51 53
25 20 21 20 16 18 23 24 26 26 22 18 19 16 10 10 9 8 9 8 8 8 8 11 10 9 10 11 11 10 10 11 11 12 13 13 13 12 11 11 11 10 10 12 14 13 13 13 10 10 10 9 8 7 6 7 8 8 8 7 6 7 8 10 14 16 17 21 22 19 20 25 35 46 44 35 36 42 37 30 36 48 53 50 47 51 53 51
25 17 15 16 14 17 21 25 25 21 18 16 15 14 10 9 9 8 8 8 8 8 9 11 11 9 10 11 11 10 10 13 13 14 15 14 13 13 10 10 10 9 9 11 12 12 13 16 12 8 10 9 7 8 8 6 7 7 8 6 5 9 9 10 14 16 18 21 21 21 22 19 25 41 44 36 37 47 43 33 34 45 59 59 49 50 55 54
26 16 14 14 14 16 22 26 23 18 18 16 13 13 10 8 8 7 8 8 8 9 9 10 10 9 9 10 10 10 9 12 13 14 17 15 13 12 10 10 10 9 9 9 11 11 12 17 16 9 8 9 8 9 10 8 7 7 7 7 7 9 9 9 12 13 17 19 20 22 20 19 30 40 40 39 46 49 41 40 47 47 52 60 55 51 56 57
22 16 15 14 13 18 22 24 19 15 16 14 11 11 9 8 8 7 7 8 7 9 10 10 9 10 10 9 9 9 9 11 11 12 15 14 12 11 10 10 10 9 9 9 10 11 11 16 18 13 9 9 11 10 8 9 8 7 9 10 8 8 8 8 9 10 13 16 19 19 19 32 51 53 46 46 49 47 40 45 60 63 52 51 54 55 58 60
16 14 15 13 13 17 19 18 16 13 11 10 10 10 9 9 8 7 8 7 8 8 8 9 10 10 11 10 9 10 10 10 10 10 11 11 11 12 10 11 11 10 10 9 9 11 12 16 17 15 12 11 11 8 6 7 7 7 8 9 9 8 9 11 11 9 8 11 14 15 22 43 55 52 50 50 45 43 43 42 51 67 68 55 49 53 59 62
17 15 15 13 14 15 15 15 12 9 8 9 9 8 9 10 8 7 8 7 7 7 7 9 10 10 11 11 10 10 10 10 10 10 10 10 11 12 11 10 10 10 10 10 9 10 13 16 18 18 14 12 12 9 6 6 7 8 6 5 8 7 8 12 13 11 9 8 9 9 21 43 49 46 50 51 44 42 43 41 42 59 75 65 49 50 59 64
15 14 14 13 13 12 15 15 10 8 9 9 8 7 7 9 8 7 8 7 8 8 8 9 10 11 12 11 11 11 11 11 11 10 10 11 11 11 11 10 10 9 10 11 11 12 14 17 20 22 17 13 12 9 8 8 8 9 8 5 7 6 7 9 8 10 10 8 10 7 16 39 48 46 49 50 50 48 45 45 47 53 67 68 57 53 59 65
12 13 13 13 12 11 15 14 9 9 10 8 8 8 7 7 8 8 9 9 9 9 10 10 10 11 11 11 12 12 12 14 14 12 11 11 12 12 10 10 10 10 11 13 14 14 16 19 22 26 24 22 19 15 12 11 9 9 8 7 7 6 8 9 7 11 11 10 12 7 15 46 56 47 48 50 50 50 46 45 48 52 59 64 63 61 60 65
13 12 11 10 10 10 12 12 8 8 10 9 9 9 7 7 8 8 9 10 9 9 12 12 9 10 10 10 12 12 12 13 15 14 12 11 12 11 10 10 11 9 11 18 19 13 15 20 23 28 30 29 28 26 20 14 11 10 8 9 10 9 12 13 11 13 15 16 16 10 23 55 63 50 49 51 49 51 51 46 46 51 55 60 64 64 64 67
16 13 11 10 9 8 9 8 7 8 9 10 10 9 8 9 9 7 7 9 10 9 11 11 10 10 11 11 14 14 13 12 14 15 14 13 13 12 11 11 10 11 17 26 25 14 13 19 21 26 30 27 28 29 22 15 13 12 11 13 15 14 13 14 15 17 20 19 16 15 26 45 53 52 53 53 51 54 56 51 49 52 55 60 65 65 65 69
17 14 11 12 10 9 10 8 7 8 8 9 11 10 8 9 9 8 7 8 9 10 11 11 10 11 13 14 14 15 15 14 15 16 16 15 14 12 12 10 9 16 24 25 19 13 16 19 17 21 24 21 22 23 17 15 17 17 17 17 18 16 15 16 19 20 22 22 20 28 35 32 33 42 48 52 54 54 53 53 53 56 57 61 65 66 65 67
15 15 12 14 13 10 10 9 7 8 7 8 10 10 9 10 10 10 9 8 8 9 11 13 12 11 13 14 14 18 19 18 19 19 18 18 16 14 15 12 10 15 18 14 11 13 18 19 15 16 18 16 16 18 16 15 16 17 19 18 19 18 17 20 21 17 20 23 24 35 43 36 33 39 42 46 50 51 50 51 54 58 60 62 64 65 66 67
15 16 12 12 12 12 12 10 9 9 8 10 11 10 10 11 11 11 8 8 10 10 10 16 17 12 11 12 15 20 22 24 28 27 22 20 18 16 18 17 13 12 12 11 13 16 19 19 16 15 17 17 15 15 16 15 15 16 16 16 18 19 19 23 23 20 25 28 25 28 37 44 50 51 47 45 45 49 51 53 57 59 61 64 65 65 67 69
25 28 26 17 11 12 13 11 10 10 9 11 13 12 11 11 11 11 8 8 14 14 11 14 16 13 12 13 15 18 19 22 27 25 20 21 20 19 20 20 16 13 13 14 15 17 19 20 17 17 19 19 16 15 16 16 17 17 15 15 16 16 20 25 26 28 33 33 26 21 29 50 61 56 51 49 48 52 53 53 59 60 59 64 67 68 71 73
34 36 39 31 17 14 14 10 10 12 11 11 13 12 11 11 11 11 10 9 13 15 12 13 15 13 12 14 16 17 15 15 17 16 15 16 17 17 18 17 15 15 16 17 17 17 18 19 18 18 21 19 16 16 16 15 16 18 18 17 17 18 22 25 29 35 36 35 33 25 29 55 66 57 53 54 52 55 55 54 58 59 57 62 67 69 71 72
36 35 36 32 22 18 16 11 11 12 11 11 12 12 11 11 9 11 14 12 10 11 11 12 14 14 14 16 17 15 13 12 12 11 11 11 11 11 12 12 12 14 15 17 17 17 19 20 20 20 22 20 16 15 16 17 19 22 20 15 17 26 29 25 28 33 33 35 43 40 42 60 66 57 56 57 54 57 58 56 60 62 61 63 65 65 65 66
Wind_Speed
12 12 12 12 12 12 12 12 12 11 11 11 11 11 11 11 11 10 9 9 9 9 9 9 10 10 11 10 9 9 9 10 10 11 13 10 7 9 11 9 10 13 16 15 14 12 11 12 11 10 9 7 6 5 4 5 4 3 5 4 3 5 5 3 3 4 10 11 11 8 8 11 12 9 8 8 10 11 10 8 8 9 13 18 23 27 27 25
12 12 12 13 13 13 12 12 12 11 11 11 11 11 11 11 11 9 9 8 8 9 9 10 10 11 12 9 8 9 10 11 14 15 15 14 11 12 14 11 10 14 18 16 15 14 12 10 9 9 8 6 5 4 3 3 3 3 4 3 4 6 7 5 2 10 12 13 11 7 7 10 11 11 9 10 13 12 11 10 11 14 18 22 26 27 25 25
13 13 13 13 13 13 13 12 12 12 11 11 11 11 11 11 10 8 8 7 7 8 9 10 11 12 11 8 7 7 10 14 14 10 8 10 13 14 12 12 12 16 19 16 15 15 11 8 8 8 8 6 4 4 4 3 3 2 3 3 4 7 8 5 6 11 11 14 12 8 10 11 10 11 9 11 14 12 11 12 13 18 20 22 23 24 25 23
13 13 13 13 13 13 13 12 12 12 12 11 11 10 10 9 9 8 7 7 7 7 8 10 11 12 10 7 6 7 9 13 5 4 3 3 8 11 13 13 13 17 19 14 13 14 12 8 8 9 9 6 5 5 5 3 2 2 3 5 7 7 7 4 9 12 12 13 11 10 12 13 11 9 9 13 12 10 10 12 15 19 21 23 22 23 23 22
13 13 14 14 14 13 13 13 12 12 12 11 10 10 9 8 7 7 7 7 7 7 8 9 10 11 8 5 5 5 9 7 3 8 3 4 4 9 14 13 14 18 17 15 13 13 12 9 8 9 9 7 5 4 5 3 2 4 2 8 9 7 6 5 10 14 12 10 8 11 12 11 11 9 10 12 9 8 9 11 15 19 22 23 22 22 21 20
13 13 13 14 14 14 14 13 13 12 12 10 10 9 8 7 6 6 7 7 7 8 9 9 9 9 6 5 4 5 9 2 6 5 2 4 1 9 15 13 15 17 16 15 13 13 11 10 9 8 8 7 5 5 5 2 1 4 2 8 8 9 8 7 13 14 12 10 8 10 12 11 12 11 8 8 9 10 9 12 17 19 21 23 22 21 19 18
13 13 13 13 14 14 14 13 13 13 12 10 9 9 8 6 5 6 6 7 7 9 9 8 8 7 6 6 5 7 10 2 7 5 5 3 2 9 13 13 16 16 16 15 14 13 10 11 10 8 8 6 4 5 4 2 2 4 3 9 10 11 10 9 14 13 11 12 10 8 11 12 12 11 8 8 11 11 10 14 17 19 22 22 21 19 18 17
13 13 13 14 14 14 14 14 13 13 12 10 9 8 7 6 6 6 7 7 8 9 9 8 7 6 7 7 7 8 7 2 8 5 6 2 6 11 13 14 16 15 15 16 15 12 10 11 10 9 8 4 4 5 4 5 4 1 2 6 10 10 9 9 11 12 10 9 8 9 10 10 11 10 9 10 12 11 12 16 18 19 21 19 18 19 17 16
14 14 14 14 14 15 15 15 13 13 11 9 8 7 7 6 6 7 7 8 8 9 8 6 5 5 6 6 9 7 2 7 8 4 3 4 11 14 14 14 17 15 14 15 15 13 10 9 11 10 7 3 4 6 6 7 3 2 1 4 11 12 10 10 9 8 8 6 6 7 7 10 10 9 10 10 11 12 13 16 18 19 19 18 17 17 16 15
14 14 14 15 15 15 15 15 13 12 11 9 8 7 7 6 6 6 7 8 8 8 7 4 5 6 6 8 10 4 5 8 6 5 3 8 13 15 15 14 17 15 13 14 14 14 11 8 9 8 7 5 5 6 7 5 1 3 2 3 9 11 11 11 9 7 9 8 8 6 4 9 7 3 7 10 12 13 14 17 18 18 18 17 16 15 15 15
15 15 15 15 15 15 15 14 13 12 10 9 8 7 6 5 5 5 6 7 7 7 6 4 4 5 9 10 10 2 6 6 4 6 7 11 12 13 13 13 15 15 12 12 13 14 13 9 7 6 4 3 4 8 8 3 1 5 6 6 8 8 8 9 9 10 8 4 6 8 5 7 4 1 7 12 12 13 15 18 18 17 16 16 16 15 13 13
16 16 16 16 16 16 15 15 13 12 10 8 7 6 5 4 4 5 5 6 5 6 5 3 3 5 10 11 6 3 6 4 4 6 8 10 10 10 9 11 14 13 11 10 11 12 13 9 8 9 5 2 4 7 4 3 4 6 7 6 7 7 7 6 6 9 8 4 6 9 6 6 5 5 11 12 12 13 15 17 17 17 16 15 16 14 12 13
17 17 16 16 16 16 16 15 14 11 10 8 6 5 5 3 4 4 5 5 4 5 3 3 4 6 10 6 3 5 4 2 5 7 7 7 8 7 7 10 10 9 9 9 10 10 10 8 9 12 9 5 6 4 2 5 7 7 8 5 6 4 6 6 5 6 7 7 8 7 3 5 5 7 11 12 13 13 14 16 16 15 15 15 14 13 12 14
18 17 16 16 15 15 15 15 14 11 9 7 5 5 5 4 4 4 4 4 3 2 2 3 4 7 9 2 6 3 2 4 6 7 7 8 8 8 8 9 8 6 6 6 8 8 7 8 10 10 9 9 6 4 5 9 8 7 8 6 4 3 4 6 5 7 6 6 8 6 2 6 6 7 10 12 14 14 14 15 15 15 15 14 14 13 13 14
18 17 16 15 15 15 15 15 14 11 10 7 5 4 5 5 4 4 4 3 1 1 3 5 5 7 8 2 6 4 5 5 7 7 7 9 9 8 9 10 8 7 5 3 4 6 6 8 10 8 8 9 8 7 8 9 8 8 7 6 6 4 4 7 7 8 7 6 7 7 3 6 6 8 11 11 13 14 14 15 15 15 15 14 14 13 13 13
18 17 16 15 14 14 14 14 13 11 10 7 4 5 4 4 4 4 4 2 1 1 2 6 6 7 7 2 7 6 6 6 8 8 7 6 6 8 9 9 9 8 7 4 3 5 7 8 8 8 8 9 9 8 8 7 8 8 6 6 6 6 5 6 8 10 8 6 8 7 3 5 5 8 10 11 13 13 13 14 15 15 15 15 13 13 13 13
18 18 16 15 13 12 13 13 11 10 8 6 4 4 3 4 3 3 3 2 2 1 6 8 5 7 5 3 7 8 5 5 8 8 6 3 3 8 10 8 9 9 8 6 6 6 7 7 7 8 9 8 8 8 9 8 7 7 7 7 5 7 6 5 9 12 12 10 10 8 4 6 7 8 10 12 13 13 13 14 15 14 14 14 13 13 13 13
18 18 16 14 13 12 11 11 9 8 7 6 4 4 3 4 3 3 3 2 3 5 9 8 7 6 2 4 5 5 6 6 7 7 6 4 4 9 9 7 8 9 8 7 8 8 7 7 7 8 8 8 8 9 10 7 6 8 7 7 5 6 4 5 7 10 14 12 11 11 7 7 9 11 12 13 13 13 13 13 14 15 14 14 13 13 14 14
17 17 17 15 12 11 10 10 8 7 7 6 5 5 4 3 2 5 7 6 6 4 3 3 4 2 4 4 3 5 6 6 7 8 7 6 6 8 8 7 8 10 9 7 9 9 8 7 8 8 8 10 11 12 13 5 4 10 9 9 6 6 4 7 6 8 13 12 11 12 9 10 12 13 13 13 13 13 12 12 12 13 14 13 13 12 14 14
17 17 17 15 12 10 10 9 8 6 6 5 5 6 4 3 2 4 7 9 5 5 3 1 2 2 2 4 4 5 7 6 7 8 8 8 8 8 8 8 9 9 9 8 9 9 8 7 9 10 11 14 14 16 17 6 5 11 9 8 8 6 6 7 6 8 11 9 10 14 12 12 12 13 13 12 12 13 13 13 12 13 14 13 14 13 14 14
17 16 16 15 13 10 9 9 7 5 6 4 6 9 3 7 4 4 2 5 2 2 2 3 4 3 2 2 2 5 7 8 7 7 8 8 9 9 8 9 9 8 10 9 8 8 8 9 10 12 15 15 14 17 15 7 8 12 8 5 7 6 7 8 6 8 9 5 5 12 11 11 11 11 11 11 12 13 12 13 14 15 14 13 14 14 14 13
17 16 16 14 13 10 9 9 6 5 6 5 9 10 5 10 6 7 8 2 6 3 1 2 1 1 2 1 3 5 7 7 7 8 8 8 10 8 6 9 10 7 10 10 7 7 8 10 11 14 15 13 13 17 12 7 11 12 7 6 8 6 7 9 6 5 6 2 2 7 7 7 9 9 10 11 11 10 10 12 13 15 15 13 13 14 14 13
16 16 15 14 12 11 10 8 5 6 6 7 10 8 6 7 7 7 9 6 4 2 2 2 3 2 5 3 4 8 11 7 8 9 8 9 10 6 4 8 10 9 10 10 8 7 7 10 12 13 14 14 15 14 9 7 11 10 8 9 7 7 8 6 8 9 9 6 6 8 5 4 5 7 10 11 10 9 9 8 6 8 12 14 15 14 14 15
16 16 15 14 12 10 10 8 6 8 8 10 9 6 5 6 9 9 9 7 4 4 2 3 3 3 5 2 7 11 9 3 6 9 10 10 7 4 6 8 10 10 8 10 12 10 9 9 11 14 14 14 12 9 8 9 10 9 12 11 1 6 8 3 6 11 10 9 10 11 6 3 6 8 9 9 8 8 8 6 4 6 9 12 15 14 14 15
16 15 14 13 11 10 11 8 7 7 7 10 6 3 5 7 8 9 9 5 5 6 3 3 0 4 5 2 7 8 7 2 3 7 11 11 6 4 5 5 7 8 8 13 13 11 10 5 6 14 13 10 9 9 12 11 9 9 13 11 5 3 4 3 4 7 6 6 7 8 5 4 9 10 9 8 8 8 9 10 11 10 8 10 13 14 14 15
16 14 13 12 10 10 10 5 3 5 6 5 2 4 6 6 7 8 7 5 4 4 4 5 1 3 3 4 6 5 7 4 2 6 10 8 6 3 3 4 5 7 8 12 9 8 8 6 3 8 9 11 12 11 13 12 10 7 8 13 6 5 0 4 6 6 5 4 4 7 6 2 6 10 11 12 11 11 11 12 13 10 9 11 13 13 14 15
15 14 12 11 9 8 7 5 7 9 6 2 5 7 7 6 6 6 6 4 3 2 1 4 2 0 1 2 4 4 1 5 4 5 8 6 5 6 6 6 6 5 3 5 6 8 7 7 7 9 8 11 11 10 12 14 11 2 6 9 11 5 4 5 7 6 5 4 4 7 8 3 4 8 11 14 13 12 13 13 13 12 12 13 14 14 15 15
15 13 11 9 7 7 7 9 12 10 4 6 6 8 7 7 5 5 6 1 5 1 1 4 3 1 2 3 5 3 4 5 4 6 6 6 6 7 7 6 7 7 5 6 7 7 7 6 8 13 11 10 10 11 13 13 11 2 9 8 6 7 10 7 7 7 5 6 5 7 7 5 3 5 9 14 13 13 14 14 15 15 14 13 14 15 15 15
15 12 10 9 7 7 8 10 11 9 7 7 8 8 8 7 4 6 5 2 3 1 1 2 2 4 5 4 4 3 5 4 1 4 6 6 6 8 6 3 6 6 8 11 9 4 8 8 8 12 11 9 10 11 14 13 11 5 3 7 7 7 9 7 6 6 6 7 7 6 7 6 3 6 9 10 11 13 14 13 14 16 15 13 14 15 16 15
14 11 10 7 4 4 6 9 11 9 7 8 9 10 10 6 4 7 2 3 1 2 2 2 2 2 5 7 5 3 3 3 3 6 7 6 7 7 7 3 5 4 6 12 13 2 2 4 3 8 9 10 11 11 14 13 10 6 1 6 9 8 7 7 6 5 6 8 8 9 9 7 5 5 9 9 10 12 12 11 13 16 17 16 13 13 15 16
12 10 9 6 4 4 7 6 4 6 6 8 10 10 9 5 6 5 4 4 0 2 2 2 1 1 5 7 5 3 3 3 5 8 6 5 7 8 8 5 4 6 5 9 10 4 3 3 3 6 8 9 10 13 12 8 8 9 5 7 9 7 7 8 7 5 7 7 7 10 10 10 7 3 8 10 11 14 13 13 17 19 19 18 15 14 14 14
11 9 7 6 6 8 10 6 6 7 8 9 10 8 6 5 5 1 6 2 4 1 2 2 2 1 4 5 3 3 3 2 4 7 6 5 5 5 6 4 4 7 7 8 9 7 6 7 7 9 9 8 7 9 9 6 8 10 8 8 8 7 7 7 7 6 7 7 6 8 9 9 6 2 8 10 9 11 12 11 17 20 19 18 18 16 12 9
9 7 5 5 6 8 10 10 10 10 10 11 9 6 7 4 2 3 2 1 1 4 3 1 1 1 4 5 3 1 3 1 2 6 5 5 5 5 5 3 5 6 4 6 9 8 7 8 10 11 9 8 8 7 7 7 10 10 8 8 8 7 8 8 8 8 8 8 8 8 6 7 4 4 7 9 7 8 10 8 12 18 20 19 18 18 13 8
6 4 3 4 6 8 8 10 11 11 11 10 8 6 7 3 2 2 2 5 4 1 1 1 2 3 4 1 4 1 3 1 2 4 3 4 5 4 4 4 5 6 3 6 7 8 8 8 11 12 9 11 13 12 8 6 9 11 10 9 9 8 8 7 7 8 8 8 9 8 5 5 4 4 4 4 3 7 10 11 13 15 18 17 16 16 16 12
3 2 3 3 6 7 8 10 11 11 9 8 7 7 5 2 1 2 3 5 2 1 2 1 7 8 4 2 2 2 0 2 4 3 2 4 3 2 2 2 4 4 4 5 4 6 9 5 11 14 10 13 16 15 12 9 7 10 10 10 10 9 9 8 7 9 8 6 7 8 5 2 4 9 8 6 9 11 11 15 17 16 16 16 15 15 16 15
2 3 5 6 6 4 6 9 9 8 8 7 8 5 1 3 3 4 5 3 4 4 1 4 7 7 2 3 2 2 3 2 3 1 2 3 2 1 1 1 2 3 4 4 3 4 8 2 12 13 8 9 14 14 13 11 6 6 9 10 9 9 10 9 8 9 9 7 6 6 7 5 7 9 9 11 11 8 7 11 15 15 16 16 15 15 14 16
6 6 6 7 5 3 5 7 8 8 8 8 5 3 2 2 3 4 4 4 3 3 6 4 2 5 2 3 2 1 3 2 1 2 2 3 2 2 2 3 1 6 5 5 4 2 5 3 10 12 8 8 11 12 14 14 11 5 6 9 10 9 10 9 7 8 8 8 6 7 10 9 7 5 6 9 8 7 8 9 10 14 16 15 14 14 14 16
8 7 5 5 3 3 5 6 8 9 8 6 1 2 3 1 3 4 4 5 5 5 8 4 1 4 4 1 1 2 3 2 1 2 1 2 2 3 5 2 4 3 5 5 5 0 3 5 7 10 10 11 10 10 11 14 15 12 7 5 8 8 8 7 7 7 8 9 6 8 11 10 6 6 8 9 7 8 10 10 11 13 14 12 12 13 15 15
10 7 5 6 3 3 4 6 8 8 8 6 1 2 3 2 4 3 3 4 6 5 6 3 2 3 4 2 1 1 2 1 1 3 2 3 1 0 5 3 2 1 3 5 6 0 3 5 3 6 9 10 9 8 8 10 13 13 9 6 7 7 7 8 7 7 8 8 7 8 10 6 1 1 7 11 9 7 7 8 9 9 11 11 11 12 12 12
10 6 5 8 3 3 5 7 9 8 6 4 2 2 1 1 3 2 3 5 4 2 4 4 1 3 2 1 2 1 2 1 1 3 3 2 1 2 3 5 4 4 3 5 6 2 4 5 3 5 7 9 8 8 10 9 11 11 8 8 8 6 6 6 7 8 8 8 6 7 7 2 4 4 3 9 10 7 4 6 9 8 7 9 11 12 11 10
9 5 5 8 4 3 6 9 7 5 4 0 1 1 1 2 1 3 1 4 4 1 3 5 3 2 1 3 2 1 2 2 1 2 1 2 3 1 4 5 6 7 5 6 6 2 2 5 5 5 6 7 5 9 15 12 8 10 10 9 9 7 6 7 7 9 9 8 8 7 4 3 4 3 4 7 6 6 6 5 9 12 8 6 9 14 13 11
8 3 6 8 5 5 9 7 2 4 3 3 2 2 2 2 4 1 2 3 3 1 2 2 3 3 1 3 3 1 4 3 1 3 0 1 2 4 4 5 7 7 7 5 3 3 4 5 6 6 6 4 4 5 11 7 6 10 12 11 10 8 8 7 7 7 8 9 10 9 5 3 4 2 4 5 3 5 6 4 6 11 10 6 8 13 14 13
6 1 7 7 5 7 10 4 2 3 1 4 2 1 1 3 3 1 1 2 2 1 1 0 1 2 1 2 3 2 3 2 1 2 2 1 2 4 3 5 7 7 6 5 2 4 3 5 5 6 6 5 4 5 7 7 9 11 11 12 12 11 11 9 8 7 7 9 10 9 6 3 6 4 4 5 4 4 5 5 5 7 9 7 6 10 12 12
4 1 6 6 6 8 9 5 3 4 3 2 3 3 1 2 3 4 3 2 2 2 2 1 0 1 0 2 4 2 1 3 2 1 3 2 4 3 2 4 6 6 3 5 5 4 4 4 3 5 5 5 6 7 7 10 10 9 9 11 11 12 12 11 9 8 7 9 10 9 6 3 5 4 5 6 6 5 5 6 7 5 7 7 6 7 10 11
4 1 3 5 8 9 7 6 5 2 5 4 5 4 4 3 2 4 5 2 2 4 3 1 1 3 1 1 3 1 1 4 2 1 3 2 4 3 1 3 5 5 5 6 7 6 5 4 4 5 5 5 4 2 3 6 7 9 10 7 7 9 12 10 7 7 6 8 11 9 3 5 4 3 5 6 6 6 5 5 7 7 6 7 6 6 8 10
4 4 4 6 7 7 5 3 6 2 4 6 4 2 4 2 5 1 4 2 1 3 3 1 1 3 2 2 3 1 1 2 3 1 3 1 3 4 1 3 3 3 6 6 7 7 5 5 5 5 5 6 3 3 5 6 6 8 6 5 7 10 12 10 7 6 4 5 10 7 1 5 7 4 4 4 5 6 5 4 7 7 6 6 5 4 6 8
5 4 2 3 4 6 4 4 6 3 2 5 4 2 3 2 4 4 3 1 0 2 4 2 2 4 2 2 3 0 1 1 2 2 3 3 2 1 1 5 3 4 2 7 8 5 5 6 7 7 7 8 5 4 8 7 5 4 4 7 9 10 13 10 9 9 5 4 7 4 8 3 7 7 6 5 4 5 5 5 6 6 6 6 5 5 5 7
6 4 2 2 3 5 3 4 6 3 2 3 1 1 4 4 1 3 2 1 1 3 4 3 3 5 3 2 3 1 1 2 1 1 2 3 3 2 3 5 3 1 3 7 4 3 6 6 6 8 8 9 8 8 10 10 6 4 5 5 5 8 12 11 12 14 10 8 7 6 12 6 1 4 7 6 4 5 5 5 7 7 6 6 6 6 5 6
5 4 0 1 4 3 1 1 3 4 3 2 1 2 4 4 2 1 1 1 2 1 3 3 2 3 3 1 3 3 1 1 1 1 1 3 3 4 2 3 2 1 3 5 2 1 4 5 6 8 8 9 10 9 9 10 7 7 8 5 3 6 8 7 10 11 9 10 12 7 5 6 7 5 6 5 4 5 5 5 8 8 7 6 6 6 6 7
3 4 1 4 5 3 1 2 4 5 3 2 2 3 3 3 1 3 1 3 2 2 4 5 1 1 3 1 3 3 2 1 3 1 1 4 3 2 3 2 2 3 4 4 2 1 2 3 4 7 7 8 10 10 9 9 9 10 10 8 7 7 6 4 4 6 7 8 12 13 6 3 5 4 6 5 2 5 6 6 8 8 8 8 7 7 8 9
6 4 3 5 4 3 4 5 5 6 5 5 4 3 3 3 1 2 2 2 4 1 2 2 1 1 2 1 2 2 4 1 4 2 1 5 3 1 2 2 4 6 5 4 3 2 4 4 3 6 8 7 9 12 12 9 9 10 11 11 9 6 6 4 1 2 5 6 9 12 7 2 1 1 5 4 4 5 6 7 7 7 8 8 8 8 8 8
7 3 2 6 4 2 4 5 5 6 4 3 3 2 3 3 3 1 2 1 2 3 3 3 2 3 3 3 2 2 4 3 4 3 3 5 5 4 3 2 4 5 5 5 4 3 3 4 4 5 6 5 7 9 9 9 9 8 9 9 5 3 6 6 0 2 4 4 3 6 2 2 2 3 4 5 5 6 6 6 5 6 8 8 8 8 7 7
Wind_Direction
343 343 342 342 340 340 340 339 338 336 335 333 330 329 328 328 323 322 321 318 318 318 321 323 323 326 326 329 335 338 335 313 284 249 236 251 256 241 249 248 227 195 172 184 203 203 206 214 219 219 228 230 231 250 249 254 276 276 288 318 318 345 23 356 325 134 139 143 141 160 173 139 134 138 130 137 136 126 124 127 125 130 132 126 128 135 138 140
342 342 342 341 339 339 338 337 337 336 334 332 328 328 328 324 322 320 316 315 317 321 326 321 321 322 322 331 341 342 333 301 272 254 243 246 253 248 247 241 218 187 176 192 203 201 208 208 209 213 224 236 222 221 237 252 266 278 305 334 320 345 21 18 117 139 144 145 141 169 163 132 144 146 145 148 137 136 131 125 126 123 121 123 132 138 140 143
341 341 341 340 339 338 336 336 336 336 335 332 330 328 326 324 322 319 316 317 318 323 324 321 322 319 321 335 345 350 328 293 268 251 234 238 249 251 239 222 206 185 183 197 202 205 218 215 209 217 228 236 222 224 233 233 248 288 296 302 344 7 22 41 138 138 137 142 144 162 148 140 157 150 149 147 139 144 137 135 134 126 129 134 138 141 143 147
342 341 341 339 338 337 337 336 334 335 334 332 331 328 327 327 322 319 319 320 323 327 325 323 322 322 330 342 356 0 311 279 264 106 123 255 260 239 215 203 196 187 193 205 207 213 227 229 221 227 237 238 220 236 250 230 259 308 299 333 18 34 35 71 139 138 138 142 145 156 149 146 153 148 149 147 142 142 140 145 141 137 140 142 143 145 148 150
342 342 342 339 337 339 338 335 334 334 333 333 330 328 330 329 324 320 316 320 329 329 326 325 323 329 341 345 360 340 291 267 92 85 90 315 291 208 193 191 188 187 201 212 211 218 229 232 226 230 244 248 222 232 251 233 276 288 338 20 30 57 63 91 131 136 138 132 142 157 148 141 141 140 146 149 144 133 141 149 144 143 143 145 147 147 151 152
341 341 342 341 340 340 340 337 334 335 336 332 327 327 327 328 325 316 314 323 329 328 330 334 333 338 347 342 344 294 273 282 75 64 13 333 314 185 183 181 178 185 208 215 210 216 225 226 221 224 236 242 228 230 249 227 287 289 48 58 52 74 94 125 125 132 138 132 158 159 139 139 136 131 132 131 124 124 137 143 142 144 144 147 148 148 154 155
341 341 342 343 341 341 342 338 336 337 338 332 325 323 324 326 323 315 316 322 326 330 333 342 344 345 348 328 305 258 252 271 68 37 328 308 177 183 182 172 171 191 216 215 209 211 215 220 217 226 233 235 229 229 251 233 224 291 27 78 84 92 114 134 127 136 144 141 162 158 139 144 137 130 124 110 114 125 134 136 140 143 145 148 149 154 155 155
347 345 344 344 342 342 341 340 339 337 337 333 327 326 328 329 324 318 315 320 327 331 337 352 353 349 351 326 285 249 231 39 53 19 324 246 176 180 177 170 178 199 218 213 208 207 212 220 220 230 236 234 231 227 246 245 219 269 11 83 99 110 128 134 132 141 140 135 143 142 138 135 130 126 118 115 122 132 137 139 143 144 146 149 153 156 154 157
353 349 347 345 344 342 341 341 340 337 337 334 334 334 332 329 321 317 314 321 330 334 344 353 353 351 345 312 283 262 137 43 41 34 351 166 169 173 175 177 186 201 213 211 209 208 214 219 221 237 265 275 232 228 235 246 230 94 68 123 121 129 141 140 139 136 120 103 92 102 119 123 127 126 114 122 135 139 142 142 145 147 148 152 156 155 155 160
357 353 349 347 345 345 344 341 339 339 337 335 338 333 328 325 319 318 316 324 334 339 341 338 353 346 309 284 275 266 69 30 34 74 106 150 158 170 182 184 187 200 210 208 208 211 217 222 225 244 288 275 220 224 233 247 196 125 161 132 120 132 145 143 143 120 88 74 82 93 126 127 122 126 126 136 146 146 145 145 148 150 151 153 154 152 157 160
0 356 352 350 347 347 346 343 343 342 340 338 335 328 325 321 313 311 310 321 334 335 332 325 338 324 295 280 274 305 50 19 46 93 132 147 158 173 184 184 186 201 211 208 208 213 220 235 254 249 264 249 205 225 231 245 130 158 173 139 116 123 131 137 140 124 104 83 109 118 131 126 99 24 139 145 153 152 148 149 153 153 151 153 151 151 159 160
1 359 354 351 349 349 347 345 346 345 345 340 331 327 318 308 302 299 304 314 327 332 333 324 325 319 294 275 267 16 37 27 87 113 138 147 164 174 178 182 187 203 213 213 207 211 221 236 263 249 261 320 221 229 231 223 194 178 189 146 120 136 132 138 140 132 136 130 136 135 119 123 121 121 136 148 155 154 152 151 156 155 150 153 151 153 160 160
2 359 354 352 350 348 346 346 347 347 349 343 331 319 302 293 287 283 292 301 319 331 329 328 319 293 279 279 50 52 36 66 119 134 144 150 160 162 174 179 187 207 216 223 209 208 222 232 256 251 267 280 220 225 307 235 211 188 193 136 114 166 149 144 146 145 143 126 156 174 142 138 144 138 144 155 159 156 155 155 160 156 152 155 153 158 161 158
1 359 355 352 350 349 345 344 346 345 347 343 327 309 299 290 285 278 279 288 311 323 314 322 307 276 266 303 62 79 110 104 138 148 147 147 147 151 166 175 188 199 206 233 212 203 223 236 256 257 261 263 248 260 246 232 225 200 193 162 153 202 163 160 161 164 157 134 172 208 192 157 164 169 161 160 166 166 159 160 165 158 155 158 155 162 160 157
0 360 355 350 350 348 343 344 345 345 346 342 325 307 301 296 293 272 271 281 281 300 314 298 271 262 260 193 92 114 144 156 163 150 146 146 146 153 158 171 184 182 187 227 192 193 225 236 247 250 242 244 256 261 232 219 218 206 207 202 190 188 179 178 171 179 177 148 186 219 170 144 169 178 168 166 175 175 164 163 168 162 159 160 158 163 160 159
360 358 355 351 348 346 344 343 344 349 350 343 322 301 301 308 303 277 277 277 264 303 286 273 238 245 280 74 117 161 176 168 154 147 159 160 153 153 153 162 170 172 185 196 184 198 221 232 239 244 239 228 230 241 231 215 211 203 212 228 194 175 193 184 170 184 185 158 190 221 144 130 191 183 170 175 180 180 169 165 170 166 163 163 164 164 160 162
359 356 355 350 345 345 344 339 340 351 352 347 327 301 312 322 304 271 277 261 260 254 251 273 275 255 281 96 156 183 161 136 144 155 170 184 150 150 156 165 165 171 181 185 201 203 206 221 228 234 238 233 224 230 233 216 205 204 208 232 205 177 197 181 164 176 180 176 183 194 156 143 178 179 178 181 180 184 172 167 172 169 168 168 169 167 161 164
358 354 352 347 344 343 341 335 335 346 348 340 314 297 313 321 307 257 265 238 214 235 244 254 271 266 176 144 175 153 129 137 156 162 160 165 158 159 170 175 165 173 181 182 196 201 198 205 216 219 220 225 219 220 235 225 211 221 215 230 203 155 208 200 169 176 179 184 178 175 169 154 166 177 184 182 181 187 176 169 173 172 173 171 172 172 164 167
356 352 349 345 342 338 338 332 324 336 340 326 314 315 301 285 272 244 236 213 208 250 269 210 244 306 88 127 120 109 128 139 160 170 169 172 168 173 181 178 175 183 191 184 185 196 197 197 211 218 212 212 210 214 229 234 239 237 225 231 210 139 195 216 182 178 185 189 178 179 179 162 173 182 181 180 184 188 178 173 175 175 177 174 177 177 168 171
352 350 346 343 340 336 336 324 314 328 325 314 305 290 275 271 237 210 215 216 237 314 344 23 305 319 103 120 101 118 139 160 187 178 173 180 180 188 184 183 189 193 206 191 174 187 198 207 210 213 214 209 211 223 233 253 306 269 242 229 229 168 172 200 180 176 197 205 179 185 183 158 170 183 178 179 186 191 185 178 179 181 180 178 180 178 172 173
348 348 344 342 336 331 332 319 309 310 306 308 283 267 323 5 346 11 334 214 149 4 319 28 352 323 23 45 126 165 170 188 199 167 168 190 199 195 176 189 199 195 212 202 173 178 197 222 214 211 221 214 215 231 240 261 285 272 255 208 233 225 171 166 177 182 195 206 168 184 181 155 164 180 179 180 191 197 192 184 183 185 183 179 182 179 175 176
344 344 342 341 333 328 329 317 296 292 298 277 264 268 9 20 345 344 323 271 97 81 224 84 262 212 92 259 222 211 214 188 171 163 170 197 213 204 168 196 212 199 202 201 186 182 197 229 221 210 221 221 221 229 237 263 259 254 253 221 226 219 153 145 165 192 190 155 143 190 178 154 162 172 179 188 197 201 201 195 186 186 185 178 183 180 176 178
340 340 339 338 332 326 322 315 283 275 280 255 263 291 11 6 329 327 298 278 97 136 203 93 264 154 128 201 164 201 224 179 161 165 170 209 218 217 206 205 219 213 195 196 201 196 201 222 223 214 218 222 219 219 227 258 253 244 241 239 216 173 173 171 166 185 206 188 173 185 163 134 162 168 186 197 198 201 212 207 186 197 194 182 183 182 180 179
337 336 336 335 331 322 318 321 281 259 257 252 267 321 2 340 326 329 300 271 119 107 54 48 328 59 69 56 157 205 234 174 178 160 163 216 209 189 230 215 224 222 191 202 214 225 227 206 214 217 212 221 217 202 220 238 238 237 238 247 261 155 197 221 153 173 205 195 175 178 153 135 186 179 188 199 198 207 218 205 191 220 206 188 186 184 184 181
335 332 333 330 328 321 316 309 262 249 255 252 259 334 330 330 329 327 305 263 126 110 145 149 67 72 73 123 171 222 256 192 195 143 161 225 228 181 226 218 230 224 192 208 217 235 237 187 213 220 193 196 217 208 218 232 232 228 231 243 328 360 177 136 157 176 210 211 188 199 190 169 192 189 184 184 188 205 214 204 198 202 199 196 193 187 187 184
332 328 329 327 324 319 313 303 257 273 271 259 6 346 318 333 328 319 297 250 129 103 165 162 134 99 133 179 173 237 247 184 86 123 168 229 263 259 248 198 222 244 216 203 209 243 228 155 190 230 180 186 216 222 217 228 236 229 224 219 237 327 100 157 209 208 225 232 196 228 244 184 181 195 190 180 185 194 200 208 203 194 200 204 196 190 191 186
330 324 323 321 318 311 308 328 319 294 277 27 12 324 321 332 319 303 273 230 111 44 195 128 85 104 137 166 199 258 225 134 122 149 181 215 236 245 238 193 201 252 248 191 204 234 213 155 183 217 208 207 215 220 215 222 229 275 336 237 203 235 249 201 222 231 250 250 193 216 243 250 191 203 194 178 183 193 191 203 206 196 201 202 195 193 193 190
327 320 316 315 312 297 286 301 305 299 341 22 333 315 329 320 297 262 257 268 80 5 280 77 72 229 224 197 235 271 90 133 182 160 175 207 216 238 235 201 210 208 187 217 214 186 183 177 198 208 213 221 215 211 212 219 225 240 349 302 223 236 252 234 230 236 246 254 232 209 216 242 215 181 188 177 180 198 193 194 201 200 200 202 201 194 191 195
325 315 311 312 307 289 277 276 282 299 348 341 311 321 318 297 268 244 251 40 75 198 126 89 140 192 216 207 217 222 163 171 235 145 171 210 222 255 274 268 251 205 174 231 239 153 175 194 208 211 212 221 213 214 214 213 229 230 336 297 264 256 263 260 248 240 238 247 249 221 202 236 237 147 169 183 185 197 194 190 198 200 199 203 208 199 191 194
321 310 309 307 297 292 276 250 249 276 315 309 309 314 294 273 246 250 263 63 75 114 125 210 172 161 217 208 182 209 205 139 124 164 183 207 196 224 265 281 273 244 179 230 245 254 143 168 231 230 220 222 207 212 218 210 234 246 237 271 252 236 247 252 249 243 247 246 245 238 213 215 238 156 157 187 199 196 190 189 196 198 195 195 207 208 195 190
318 306 302 283 249 255 262 244 239 276 299 304 306 298 277 249 240 257 54 64 231 104 160 199 122 196 242 234 189 172 219 151 158 182 184 210 194 199 222 205 234 243 204 217 223 201 156 167 250 240 231 246 223 208 209 204 243 246 230 250 239 219 224 236 240 235 246 251 249 250 229 211 232 200 153 175 194 193 190 190 192 195 194 187 195 208 201 192
313 300 289 261 243 243 256 295 333 303 292 297 297 285 263 245 248 335 69 165 240 19 28 39 35 269 256 258 210 164 225 155 170 198 182 199 210 203 219 211 225 228 209 207 193 175 194 199 203 211 219 251 248 210 195 198 236 236 228 236 230 219 215 221 231 228 237 252 252 249 240 226 231 169 151 171 188 190 188 190 188 188 192 188 188 197 202 202
310 296 274 243 237 237 253 282 293 286 291 291 282 262 254 262 346 6 27 148 359 23 20 346 345 286 246 231 141 105 286 78 184 224 187 191 213 203 220 270 286 262 226 216 203 183 191 194 191 195 197 206 219 212 191 192 212 217 220 224 223 218 214 220 228 229 234 238 240 241 238 234 218 130 147 167 183 184 173 191 198 186 188 191 187 188 194 209
309 278 241 223 233 236 248 264 270 281 291 284 269 252 259 280 77 268 287 66 55 25 112 279 236 210 247 258 101 161 276 338 236 234 171 196 222 206 203 220 253 269 258 235 230 205 201 200 190 189 176 179 206 230 232 209 200 208 220 225 229 227 225 233 227 229 235 224 225 226 228 250 219 164 142 133 203 203 164 175 202 193 186 186 184 186 190 197
306 226 200 218 238 240 249 260 267 273 279 280 270 256 261 313 69 271 4 47 356 269 114 232 243 219 191 67 73 170 318 319 257 227 164 187 209 226 236 211 214 249 268 258 261 230 234 219 168 181 185 176 196 226 244 247 215 195 210 224 229 231 236 251 252 255 262 242 224 216 223 272 135 149 164 178 209 212 172 170 187 187 181 177 178 186 187 189
200 173 193 213 227 233 240 255 264 262 266 273 268 265 16 27 360 8 21 347 316 341 350 219 246 251 176 112 265 179 125 282 266 194 153 156 133 185 211 23 328 293 287 287 303 244 249 219 140 172 207 187 195 213 223 245 246 182 197 220 226 237 246 252 252 255 265 261 241 225 221 198 144 154 182 187 190 194 184 182 178 169 170 175 178 183 184 183
206 191 195 198 197 227 239 250 262 255 257 266 280 340 29 52 8 3 7 321 314 315 277 250 234 277 250 139 223 146 118 233 247 111 169 166 88 349 225 121 9 300 307 301 293 268 267 248 151 173 208 199 206 214 210 229 250 231 204 205 207 230 250 258 255 242 243 246 238 239 240 219 187 181 189 185 176 176 193 194 177 160 160 172 180 178 179 180
238 209 191 171 169 249 253 254 266 263 262 266 319 360 298 43 44 354 353 321 288 259 271 291 79 271 287 92 188 147 134 212 181 94 249 215 120 315 291 108 112 300 320 297 272 183 274 254 174 183 208 192 197 220 211 214 233 250 260 212 201 219 226 232 254 251 237 236 229 231 242 239 215 174 170 186 189 185 190 183 176 163 148 160 179 174 174 177
247 225 172 140 152 250 254 258 265 261 254 256 165 144 275 56 74 357 349 305 278 278 291 325 105 240 292 352 269 197 149 203 171 162 237 287 113 207 306 350 91 335 341 300 292 325 257 261 186 206 214 175 174 215 213 197 214 242 271 253 224 235 226 210 225 249 249 244 232 222 225 230 281 144 166 173 168 169 179 158 150 148 142 157 173 171 170 175
234 236 144 129 160 240 259 259 256 251 251 286 27 107 248 92 114 64 354 305 286 297 317 344 107 236 306 333 277 333 340 275 217 190 197 254 234 123 6 346 328 334 342 287 282 245 242 256 219 226 215 181 179 205 213 202 197 212 235 235 219 220 234 225 217 230 249 257 248 237 226 156 38 8 103 131 133 135 146 134 129 139 159 166 165 168 170 173
234 245 131 132 169 227 252 248 244 258 251 188 35 92 20 328 343 110 119 289 295 297 324 338 324 298 336 299 296 19 303 257 248 279 201 200 248 55 36 346 321 320 311 265 253 258 295 269 246 234 218 211 202 203 213 215 205 204 211 223 225 212 216 231 223 219 234 254 259 255 238 110 70 18 72 96 113 127 133 139 133 134 155 188 168 163 165 167
248 245 119 134 174 221 250 248 222 280 262 111 73 70 84 291 294 324 178 249 285 259 251 298 326 339 327 299 328 322 266 257 232 278 312 101 358 28 35 341 318 305 299 278 256 30 355 284 264 253 238 273 329 243 229 236 243 232 215 212 228 228 221 230 235 225 222 234 250 261 256 127 101 77 76 81 88 107 116 123 115 118 136 181 170 154 158 162
235 150 116 141 185 226 251 247 165 242 297 70 50 77 132 241 265 311 248 271 294 272 252 182 359 328 299 290 306 277 266 280 238 297 330 128 87 42 15 341 321 298 302 310 339 36 335 274 266 264 261 285 292 260 251 248 243 239 219 207 217 223 224 230 238 243 239 230 231 245 248 163 115 107 99 95 96 99 109 120 114 107 123 143 143 143 152 152
246 130 129 157 200 230 253 262 211 189 106 97 214 179 173 292 332 339 343 357 339 311 323 30 46 279 283 290 293 312 309 266 207 193 298 253 120 84 358 347 326 310 352 2 348 349 310 284 272 260 256 245 225 214 218 219 225 236 225 215 219 230 241 244 234 232 253 260 248 241 235 138 101 121 128 118 127 130 121 125 127 118 119 126 133 143 146 145
280 221 140 161 198 228 258 296 296 157 126 185 212 180 191 171 70 320 318 355 341 324 330 20 338 299 316 269 271 295 264 273 284 136 244 246 122 115 359 359 329 330 29 16 328 308 291 285 282 265 252 244 229 216 240 225 218 225 227 232 248 254 259 264 248 228 242 264 261 258 231 121 117 153 138 129 138 128 115 128 127 121 121 116 121 142 149 148
268 218 189 167 190 227 241 285 299 299 144 189 198 180 231 180 118 195 277 260 222 300 306 328 288 271 266 240 246 235 187 291 332 287 234 223 119 113 39 312 298 25 27 335 289 282 283 267 262 268 270 275 304 325 286 276 254 238 241 271 275 258 254 259 255 245 261 257 246 262 319 141 141 137 149 155 148 129 124 137 126 122 126 110 91 110 140 148
265 248 216 162 189 226 211 190 240 266 139 189 192 153 236 257 121 160 223 269 263 274 275 290 282 260 268 286 263 207 76 347 338 314 315 344 8 105 200 266 277 80 60 269 256 266 291 270 248 249 250 255 263 251 249 254 263 269 270 269 263 250 247 252 248 252 291 278 238 332 355 236 164 143 167 169 146 149 159 152 130 119 121 115 103 97 107 131
257 282 4 32 222 223 203 185 213 222 146 189 205 140 225 245 183 168 167 131 213 242 235 218 241 262 283 312 298 342 92 281 301 53 335 327 316 294 194 216 252 107 234 260 268 290 289 276 257 255 248 243 236 216 222 228 214 203 224 250 267 250 238 239 245 251 272 270 254 4 8 332 332 116 149 149 150 173 165 140 124 115 111 116 129 126 104 103
256 277 52 214 247 271 357 94 225 237 194 189 222 213 231 230 179 131 7 250 199 200 266 258 211 260 279 293 297 308 80 237 252 114 297 287 295 308 272 202 215 324 288 285 305 288 276 279 272 270 263 247 234 217 224 240 238 227 229 234 278 273 251 240 245 253 271 273 266 289 5 27 25 49 105 111 135 157 145 127 120 119 119 119 130 131 112 101
296 316 348 230 241 275 281 178 236 240 179 142 217 205 232 256 175 128 158 282 294 146 247 265 162 248 288 187 250 288 68 42 297 68 207 268 267 283 296 313 335 334 325 308 302 203 244 270 277 279 271 244 231 228 231 246 260 262 256 249 255 267 263 252 258 271 279 269 259 258 247 81 41 46 81 82 129 157 153 143 125 117 118 118 119 116 108 105
319 322 338 273 240 217 221 204 221 237 200 189 201 175 199 229 187 124 137 321 325 302 231 271 126 201 273 213 248 314 64 10 302 352 299 287 311 309 299 349 325 308 319 324 307 276 260 264 259 261 260 240 227 230 227 233 255 262 255 248 248 267 280 274 283 312 293 276 257 256 249 149 115 106 102 116 172 169 153 140 127 121 118 117 117 112 111 110
319 283 273 277 255 182 228 220 210 237 241 189 151 150 211 195 144 197 202 162 267 295 354 357 319 257 239 184 155 43 32 337 320 340 297 286 298 282 278 311 305 306 323 320 300 291 284 282 271 259 261 253 240 242 241 244 253 255 251 245 227 233 272 270 102 50 338 327 276 264 280 101 174 187 155 163 174 161 142 116 105 115 117 122 126 122 123 118